Location: Newark
(48.4472°N, 1.4892°E)
Time: 10:04:37
(UTC+00:00)

Transit 4A - Pass Details

Date: 24 November 2019
Orbit: 870 x 974 km, 66.8° (Epoch: 14 December)

Event Time Altitude Azimuth Distance (km) Brightness Sun altitude
Exits shadow 06:05:33 12° 312° (NW) 2,428 9.5 -11.2°
Maximum altitude 06:10:38 40° 246° (WSW) 1,269 8.3 -10.4°
Drops below altitude 10° 06:15:59 10° 179° (S) 2,511 10.5 -9.6°
Sets 06:18:34 0° 172° (S) 3,443 11.3 -9.2°
